Regional Weather Roundup
Issued by NWS

Home | Current Version | Previous Version | Text Only | Print | Product List | Glossary Off
Versions: 1 2 3 4 5 6 7 8 9 10 11 12 13 14 15 16 17 18 19 20 21 22 23 24 25 26 27 28 29 30 31 32 33 34 35 36 37 38 39 40 41 42 43 44 45 46 47 48 49 50

000
ASUS43 KFSD 261410
RWRSD

WEATHER ROUNDUP FOR SOUTH DAKOTA
NATIONAL WEATHER SERVICE SIOUX FALLS SD
900 AM CDT TUE SEP 26 2017

NOTE: "FAIR" INDICATES FEW OR NO CLOUDS BELOW 12,000 FEET WITH NO
SIGNIFICANT WEATHER AND/OR OBSTRUCTIONS TO VISIBILITY.


SDZ001>005-009-010-012>017-261500-
NORTHWEST AND NORTH CENTRAL SOUTH DAKOTA

CITY           SKY/WX    TMP DP  RH WIND       PRES   REMARKS
BUFFALO          N/A     44  43  96 W8        30.03R
FAITH            N/A     46  46 100 S5        30.09R
MOBRIDGE       CLOUDY    50  46  86 N3        30.10S
$$

SDZ012>016-024>037-041>051-057-063-072>074-261500-
SOUTHWEST AND SOUTH CENTRAL SOUTH DAKOTA

CITY           SKY/WX    TMP DP  RH WIND       PRES   REMARKS
RAPID CTY ARPT SUNNY     43  41  93 N5        30.12R
PIERRE         CLOUDY    45  44  97 CALM      30.12R
CUSTER         SUNNY     39  36  89 NW5       30.14R
ELLSWORTH AFB  SUNNY     44  44 100 W3        30.11R
PHILIP         SUNNY     47  44  90 W3        30.12R
PINE RIDGE     SUNNY     45  43  93 SW7       30.14R
SPEARFISH      FAIR      45  39  81 CALM      30.11S
WINNER         FAIR      46  44  93 CALM      30.14S
$$

SDZ004>011-016>023-039-040-261500-
NORTHEAST SOUTH DAKOTA

CITY           SKY/WX    TMP DP  RH WIND       PRES   REMARKS
ABERDEEN       CLOUDY    49  48  97 W9        30.11R
WATERTOWN      CLOUDY    49  49 100 NW8       30.05S
BROOKINGS      CLOUDY    49  48  97 NW12      30.08R
SISSETON         N/A     50  49  96 NW13      30.05R
$$

SDZ017-020-022-023-036>040-048>070-261500-
SOUTHEAST SOUTH DAKOTA

CITY           SKY/WX    TMP DP  RH WIND       PRES   REMARKS
SIOUX FALLS    PTSUNNY   51  50  96 NW14      30.08R
HURON          CLOUDY    49  47  93 NW7       30.11S
CHAMBERLAIN    MOSUNNY   50  50  99 NW5       30.14S
MITCHELL       CLOUDY    50  47  89 NW8       30.13R
YANKTON        CLOUDY    50  46  86 NW16      30.12R
$$

ABBREVIATIONS USED IN REMARKS
   TC - TEMPERATURE IN CELSIUS
  WCI - WIND CHILL INDEX
   HX - HEAT INDEX
  VSB - VISIBILITY




USA.gov is the U.S. government's official web portal to all federal, state and local government web resources and services.